TimeCST,TemperatureF,Dew PointF,Humidity,Sea Level PressureIn,VisibilityMPH,Wind Direction,Wind SpeedMPH,Gust SpeedMPH,PrecipitationIn,Events,Conditions,WindDirDegrees,DateUTC
12:15 AM,53.8,40.3,60,30.04,10.0,SE,10.4,-,N/A,,Clear,130,2013-03-08 06:15:00
12:35 AM,52.7,40.5,63,30.04,10.0,SE,9.2,-,N/A,,Clear,130,2013-03-08 06:35:00
12:55 AM,51.8,40.8,66,30.04,10.0,SE,9.2,-,N/A,,Clear,130,2013-03-08 06:55:00
1:15 AM,52.9,41.9,66,30.05,10.0,SE,10.4,-,N/A,,Clear,140,2013-03-08 07:15:00
1:35 AM,53.4,41.9,65,30.05,10.0,SE,10.4,-,N/A,,Clear,140,2013-03-08 07:35:00
1:55 AM,53.6,41.9,65,30.05,10.0,SE,11.5,-,N/A,,Clear,140,2013-03-08 07:55:00
2:15 AM,54.1,42.1,64,30.04,10.0,SSE,12.7,-,N/A,,Clear,150,2013-03-08 08:15:00
2:35 AM,53.2,42.1,66,30.04,10.0,SE,12.7,-,N/A,,Clear,140,2013-03-08 08:35:00
2:55 AM,53.6,42.6,66,30.03,10.0,SE,11.5,-,N/A,,Clear,140,2013-03-08 08:55:00
3:15 AM,54.0,43.2,67,30.02,10.0,SE,12.7,-,N/A,,Clear,140,2013-03-08 09:15:00
3:35 AM,53.6,43.5,69,30.02,10.0,SE,12.7,-,N/A,,Clear,140,2013-03-08 09:35:00
3:55 AM,53.6,43.7,69,30.02,10.0,SE,12.7,-,N/A,,Clear,140,2013-03-08 09:55:00
4:15 AM,53.1,43.9,71,30.01,10.0,SE,12.7,-,N/A,,Clear,140,2013-03-08 10:15:00
4:35 AM,53.1,44.2,72,30.02,10.0,SE,12.7,-,N/A,,Clear,140,2013-03-08 10:35:00
4:55 AM,52.5,44.6,74,30.02,10.0,SE,11.5,-,N/A,,Clear,140,2013-03-08 10:55:00
5:15 AM,52.7,45.0,75,30.03,10.0,SE,11.5,-,N/A,,Clear,140,2013-03-08 11:15:00
5:35 AM,52.5,45.5,77,30.02,10.0,SE,11.5,-,N/A,,Clear,130,2013-03-08 11:35:00
5:55 AM,51.8,45.3,79,30.02,10.0,SE,10.4,-,N/A,,Clear,130,2013-03-08 11:55:00
6:15 AM,52.7,46.0,78,30.03,10.0,SE,12.7,-,N/A,,Clear,140,2013-03-08 12:15:00
6:35 AM,52.3,46.2,80,30.04,10.0,SE,11.5,-,N/A,,Clear,140,2013-03-08 12:35:00
6:55 AM,52.3,46.8,81,30.04,10.0,SE,11.5,-,N/A,,Clear,140,2013-03-08 12:55:00
7:15 AM,53.6,47.5,80,30.04,10.0,SE,15.0,-,N/A,,Clear,140,2013-03-08 13:15:00
7:35 AM,54.1,47.7,79,30.04,10.0,SSE,16.1,19.6,N/A,,Clear,150,2013-03-08 13:35:00
7:55 AM,54.5,47.8,78,30.04,10.0,SSE,15.0,-,N/A,,Clear,150,2013-03-08 13:55:00
8:15 AM,54.7,48.2,79,30.05,10.0,SE,17.3,-,N/A,,Clear,140,2013-03-08 14:15:00
8:35 AM,55.4,48.7,78,30.06,10.0,SE,15.0,-,N/A,,Scattered Clouds,140,2013-03-08 14:35:00
8:55 AM,55.9,49.1,78,30.06,10.0,SSE,16.1,-,N/A,,Mostly Cloudy,150,2013-03-08 14:55:00
9:15 AM,56.3,49.5,78,30.06,10.0,SE,16.1,20.7,N/A,,Mostly Cloudy,140,2013-03-08 15:15:00
9:35 AM,56.8,50.0,78,30.06,10.0,SSE,16.1,-,N/A,,Overcast,150,2013-03-08 15:35:00
9:55 AM,57.6,50.4,77,30.06,10.0,SE,17.3,-,N/A,,Overcast,140,2013-03-08 15:55:00
10:15 AM,58.1,51.1,77,30.05,10.0,SE,16.1,-,N/A,,Overcast,140,2013-03-08 16:15:00
10:35 AM,58.3,51.4,78,30.05,10.0,SSE,19.6,-,N/A,,Overcast,150,2013-03-08 16:35:00
10:55 AM,58.5,52.2,80,30.05,10.0,SSE,19.6,-,N/A,,Overcast,150,2013-03-08 16:55:00
11:15 AM,59.0,52.5,79,30.04,10.0,SE,19.6,-,N/A,,Overcast,140,2013-03-08 17:15:00
11:35 AM,59.4,52.7,79,30.04,10.0,SE,20.7,24.2,N/A,,Overcast,140,2013-03-08 17:35:00
11:55 AM,59.4,52.7,79,30.03,10.0,SSE,19.6,-,N/A,,Overcast,150,2013-03-08 17:55:00
12:15 PM,59.9,52.9,78,30.03,10.0,SE,20.7,25.3,N/A,,Overcast,140,2013-03-08 18:15:00
12:35 PM,59.9,52.7,77,30.01,10.0,SSE,21.9,27.6,N/A,,Overcast,150,2013-03-08 18:35:00
12:55 PM,59.4,52.7,79,30.00,10.0,SE,21.9,26.5,N/A,,Overcast,140,2013-03-08 18:55:00
1:15 PM,59.4,52.7,79,30.00,10.0,SE,19.6,-,N/A,,Overcast,140,2013-03-08 19:15:00
1:35 PM,59.4,52.7,79,29.99,10.0,SE,21.9,26.5,N/A,,Overcast,140,2013-03-08 19:35:00
1:55 PM,59.9,52.7,77,29.97,10.0,SE,21.9,27.6,N/A,,Overcast,140,2013-03-08 19:55:00
2:15 PM,59.9,53.1,78,29.97,10.0,SE,20.7,27.6,N/A,,Overcast,140,2013-03-08 20:15:00
2:35 PM,60.8,53.6,77,29.96,10.0,SSE,23.0,-,N/A,,Overcast,150,2013-03-08 20:35:00
2:55 PM,61.0,53.8,77,29.95,10.0,SSE,20.7,26.5,N/A,,Overcast,150,2013-03-08 20:55:00
3:15 PM,61.7,54.1,76,29.94,10.0,SSE,21.9,29.9,N/A,,Overcast,150,2013-03-08 21:15:00
3:35 PM,62.6,54.5,75,29.93,10.0,SSE,21.9,28.8,N/A,,Overcast,150,2013-03-08 21:35:00
3:55 PM,62.4,54.5,75,29.93,10.0,SSE,20.7,26.5,N/A,,Overcast,150,2013-03-08 21:55:00
4:15 PM,62.1,54.5,76,29.93,10.0,SSE,17.3,27.6,N/A,,Overcast,150,2013-03-08 22:15:00
4:35 PM,62.6,55.0,76,29.92,10.0,SSE,20.7,-,N/A,,Overcast,150,2013-03-08 22:35:00
4:55 PM,62.6,54.9,76,29.92,10.0,SE,17.3,28.8,N/A,,Overcast,140,2013-03-08 22:55:00
5:15 PM,62.1,54.9,77,29.91,10.0,SE,16.1,-,N/A,,Overcast,140,2013-03-08 23:15:00
5:35 PM,62.1,54.9,77,29.92,10.0,SSE,13.8,-,N/A,,Overcast,150,2013-03-08 23:35:00
5:55 PM,62.6,55.0,76,29.91,10.0,SE,17.3,23.0,N/A,,Overcast,140,2013-03-08 23:55:00
6:15 PM,63.0,55.2,76,29.92,10.0,SSE,21.9,29.9,N/A,,Overcast,150,2013-03-09 00:15:00
6:35 PM,62.6,54.9,76,29.92,10.0,SE,16.1,-,N/A,,Overcast,140,2013-03-09 00:35:00
6:55 PM,62.2,54.9,77,29.92,10.0,SE,18.4,24.2,N/A,,Overcast,140,2013-03-09 00:55:00
7:15 PM,61.9,54.9,78,29.92,10.0,SE,18.4,24.2,N/A,,Overcast,140,2013-03-09 01:15:00
7:35 PM,61.9,55.0,78,29.91,10.0,SE,23.0,28.8,N/A,,Overcast,140,2013-03-09 01:35:00
7:55 PM,61.5,55.0,79,29.91,10.0,SE,21.9,27.6,N/A,,Overcast,140,2013-03-09 01:55:00
8:15 PM,61.5,55.0,79,29.91,10.0,SE,18.4,25.3,N/A,,Overcast,140,2013-03-09 02:15:00
8:35 PM,61.5,55.0,79,29.90,10.0,SE,21.9,28.8,N/A,,Overcast,140,2013-03-09 02:35:00
8:55 PM,61.3,55.4,81,29.88,10.0,SE,25.3,31.1,N/A,,Overcast,140,2013-03-09 02:55:00
9:15 PM,61.2,55.4,81,29.87,10.0,SE,23.0,27.6,N/A,,Overcast,140,2013-03-09 03:15:00
9:35 PM,61.2,55.4,81,29.86,10.0,SSE,24.2,32.2,N/A,,Overcast,150,2013-03-09 03:35:00
9:55 PM,61.3,55.6,81,29.87,10.0,SSE,19.6,28.8,N/A,,Overcast,150,2013-03-09 03:55:00
10:15 PM,61.7,55.8,81,29.87,10.0,SSE,24.2,31.1,N/A,,Overcast,160,2013-03-09 04:15:00
10:35 PM,61.9,56.1,81,29.88,10.0,SSE,25.3,31.1,N/A,,Overcast,150,2013-03-09 04:35:00
10:55 PM,61.9,56.3,82,29.89,10.0,SSE,20.7,26.5,N/A,,Overcast,150,2013-03-09 04:55:00
11:15 PM,62.1,56.5,82,29.87,10.0,SSE,20.7,28.8,N/A,,Overcast,150,2013-03-09 05:15:00
11:35 PM,62.1,56.5,82,29.87,10.0,SSE,18.4,-,N/A,,Overcast,150,2013-03-09 05:35:00
11:55 PM,62.2,56.7,82,29.86,10.0,SSE,17.3,23.0,N/A,,Overcast,150,2013-03-09 05:55:00